This is the latest recevied weather packets stored in our database for station/object KC5DAQ-28. If no packets are shown the sender has not sent any weather packets the latest 10 day(s).
| Time | Temp. | Humidity | Pressure | Rain* | Wind** | Luminosity | Snow |
|---|---|---|---|---|---|---|---|
| 1778161226 | 17.22° C | 86% | 1009.8 hPa | 0 mm | - | 44 W/m² | - |
| 1778161165 | 17.22° C | 86% | 1009.8 hPa | 0 mm | - | 44 W/m² | - |
| 1778161112 | 17.22° C | 86% | 1009.9 hPa | 0 mm | - | 44 W/m² | - |
| 1778161045 | 17.22° C | 86% | 1009.9 hPa | 0 mm | - | 44 W/m² | - |
| 1778160985 | 17.22° C | 86% | 1009.9 hPa | 0 mm | - | 46 W/m² | - |
| 1778160927 | 17.78° C | 86% | 1009.9 hPa | 0 mm | - | 49 W/m² | - |
| 1778160867 | 17.78° C | 86% | 1009.9 hPa | 0 mm | - | 55 W/m² | - |
| 1778160806 | 17.78° C | 86% | 1010.1 hPa | 0 mm | - | 55 W/m² | - |
| 1778160746 | 17.78° C | 86% | 1010 hPa | 0 mm | - | 58 W/m² | - |
| 1778160685 | 17.78° C | 86% | 1010.1 hPa | 0 mm | - | 60 W/m² | - |
| 1778160625 | 17.78° C | 86% | 1010.1 hPa | 0 mm | - | 60 W/m² | - |
| 1778160566 | 17.78° C | 86% | 1010.1 hPa | 0 mm | - | 60 W/m² | - |
| 1778160507 | 17.78° C | 86% | 1010.1 hPa | 0 mm | - | 67 W/m² | - |
| 1778160446 | 17.78° C | 86% | 1010.2 hPa | 0 mm | - | 67 W/m² | - |
| 1778160385 | 17.78° C | 86% | 1010.2 hPa | 0 mm | - | 67 W/m² | - |
| 1778160326 | 17.78° C | 86% | 1010.3 hPa | 0 mm | - | 67 W/m² | - |
| 1778160267 | 17.78° C | 86% | 1010.3 hPa | 0 mm | - | 67 W/m² | - |
| 1778160204 | 17.78° C | 86% | 1010.2 hPa | 0 mm | - | 67 W/m² | - |
| 1778160146 | 17.78° C | 86% | 1010.2 hPa | 0 mm | - | 70 W/m² | - |
| 1778160086 | 17.78° C | 86% | 1010.3 hPa | 0 mm | - | 69 W/m² | - |
| 1778160025 | 17.78° C | 86% | 1010.3 hPa | 0 mm | - | 69 W/m² | - |
| 1778159965 | 17.78° C | 86% | 1010.4 hPa | 0 mm | - | 58 W/m² | - |
| 1778159905 | 17.78° C | 86% | 1010.4 hPa | 0 mm | - | 48 W/m² | - |
| 1778159845 | 17.78° C | 86% | 1010.4 hPa | 0 mm | - | 39 W/m² | - |
| 1778159786 | 17.78° C | 86% | 1010.3 hPa | 0 mm | - | 39 W/m² | - |
* Rain latest hour (hover to see other rain measurements)
** Current wind speed in m/s (hover to see current wind gust speed)